Weather in Prudy

Russia / Republic of Crimea     45°14′08″N   34°42′00″E
temp.,
°C
wind,
m/s
gust,
m/s
humid.,
%
clouds,
%
prec.,
mm/h
press.,
hPa
HPBL,
m
28 september, tue
tue2800:00+11wsw11592 0.0 101910
03:00+10wnw22625 0.0 101915
06:00+9w22725 0.0 102024
09:00+13wnw226243 0.0 1020316
12:00+16ne444696 0.1 10211413
15:00+17nne4343100 0.1 10201777
18:00+15ne355519 0.0 1021331
21:00+11n117292 0.0 102210
29 september, wed
wed2900:00+11wnw117611 0.0 102310
03:00+11nnw118099 0.1 102310
06:00+11nnw228288 0.4 102325
09:00+14ne576794 1.8 1024880
12:00+16ene795845 1.6 10241484
15:00+16ene885542 1.8 10241575
18:00+14ne596725 0.3 1025531
21:00+12ne5107236 0.7 1026381
30 september, thu
thu3000:00+12ne6117043 0.3 1026453
03:00+13ne6106897 0.7 1026525
06:00+12ne6106034 0.1 1027534
09:00+13ne795522 0.1 10281549
12:00+15ene89454 0.0 10281533
15:00+14ene89450 0.0 10281420
18:00+12ene69530 0.0 1028831
21:00+11ne410584 0.0 1029278
1 october, fri
fri100:00+11ene37575 0.0 1029163
03:00+10e36594 0.0 1029100
06:00+10ene48585 0.0 1029225
09:00+13ene810495 0.0 10291433
12:00+15ene911425 0.0 10291458
15:00+15ene911445 0.0 10291390
18:00+13ene711504 0.0 1028818
21:00+12ene612503 0.0 1028433
2 october, sat
sat200:00+11e512530 0.0 1028370
03:00+10e412630 0.0 1027337
06:00+11e613630 0.0 1026514
09:00+13e913580 0.0 10261089
12:00+16ene911470 0.0 10251222
15:00+17ene911440 0.0 10241369
18:00+15ene812480 0.0 1024666
21:00+14e613550 0.0 1024455